Location: Baumgarten
(49.0970°N, 12.7493°E)
Time: 18:01:18
(UTC+00:00)

Cosmos-2242 - Pass Details

Date: 05 July 2020
Orbit: 592 x 616 km, 82.5° (Epoch: 13 August)

Event Time Altitude Azimuth Distance (km) Brightness Sun altitude
Rises 20:48:03 0° 344° (NNW) 2,871 8.1 -11.2°
Reaches altitude 10° 20:50:21 10° 337° (NNW) 1,967 7.1 -11.4°
Maximum altitude 20:54:25 40° 268° (W) 902 4.2 -11.8°
Drops below altitude 10° 20:58:30 10° 198° (SSW) 1,965 5.3 -12.2°
Enters shadow 20:59:06 - 196° (SSW) 2,195 5.5 -12.2°
